This demonstration page uses our WeatherBlox Daily Observations layout. Learn more.

Left ArrowRight Arrow

44.8408, -93.29828

Hourly Observations for November 20, 2016

Temp ( °F °C ) Dew Point ( °F °C ) Humidity (%) Winds ( mph kmh ) Pressure ( in mb ) Visibility ( mi km ) Precip ( " mm )
12:53 am 00:53 Partly Cloudy 24 -4.4 15 -9.4 68 68 N 8 13 30.46 1032 10 16 0.00 0.00
1:53 am 01:53 Partly Cloudy 25 -3.9 15 -9.4 66 66 NNE 5 7 30.46 1032 10 16 0.00 0.00
2:53 am 02:53 Partly Cloudy 25 -3.9 13 -10.6 60 60 NE 5 7 30.45 1031 10 16 0.00 0.00
3:53 am 03:53 Partly Cloudy 25 -3.9 11 -11.7 55 55 NNE 6 9 30.46 1032 10 16 0.00 0.00
4:53 am 04:53 Mostly Cloudy 25 -3.9 12 -11.1 58 58 ENE 6 9 30.45 1031 10 16 0.00 0.00
5:53 am 05:53 Mostly Cloudy 25 -3.9 12 -11.1 58 58 ENE 5 7 30.46 1031 10 16 0.00 0.00
6:53 am 06:53 Mostly Cloudy 25 -3.9 11 -11.7 55 55 Calm 30.46 1032 10 16 0.00 0.00
7:53 am 07:53 Cloudy 25 -3.9 11 -11.7 55 55 ESE 6 9 30.45 1031 10 16 0.00 0.00
8:53 am 08:53 Cloudy 26 -3.3 11 -11.7 53 53 ENE 6 9 30.45 1031 10 16 0.00 0.00
9:53 am 09:53 Cloudy 26 -3.3 12 -11.1 55 55 E 8 13 30.45 1031 10 16 0.00 0.00
10:53 am 10:53 Cloudy 26 -3.3 12 -11.1 55 55 SSE 6 9 30.44 1031 10 16 0.00 0.00
11:53 am 11:53 Cloudy 27 -2.8 13 -10.6 55 55 SE 6 9 30.42 1030 10 16 0.00 0.00
12:53 pm 12:53 Cloudy 28 -2.2 14 -10 56 56 SE 7 11 30.40 1030 10 16 0.00 0.00
1:53 pm 13:53 Mostly Cloudy 29 -1.7 15 -9.4 56 56 E 7 11 30.37 1029 10 16 0.00 0.00
2:53 pm 14:53 Mostly Sunny 30 -1.1 15 -9.4 54 54 ESE 7 11 30.35 1028 10 16 0.00 0.00
3:53 pm 15:53 Mostly Sunny 30 -1.1 15 -9.4 54 54 ESE 8 13 30.35 1028 10 16 0.00 0.00
4:53 pm 16:53 Mostly Clear 28 -2.2 15 -9.4 58 58 E 9 15 30.33 1027 10 16 0.00 0.00
5:53 pm 17:53 Clear 28 -2.2 15 -9.4 58 58 SE 6 9 30.34 1027 10 16 0.00 0.00
6:53 pm 18:53 Clear 27 -2.8 15 -9.4 61 61 ESE 7 11 30.33 1027 10 16 0.00 0.00
7:53 pm 19:53 Mostly Clear 26 -3.3 16 -8.9 66 66 E 7 11 30.33 1027 10 16 0.00 0.00
8:53 pm 20:53 Clear 26 -3.3 16 -8.9 66 66 ESE 8 13 30.33 1027 10 16 0.00 0.00
9:53 pm 21:53 Clear 24 -4.4 16 -8.9 71 71 SE 5 7 30.34 1027 10 16 0.00 0.00
10:53 pm 22:53 Mostly Clear 24 -4.4 15 -9.4 68 68 ESE 5 7 30.34 1028 10 16 0.00 0.00
11:53 pm 23:53 Partly Cloudy 25 -3.9 16 -8.9 69 69 E 7 11 30.32 1027 10 16 0.00 0.00

Powered by AerisWeather